Retour au catalogue

FENGYUN 1C DEB

ActifSSO
NORAD 29909·DEBRIS·🇨🇳 China

Lancé May 10, 1999 depuis Taiyuan Satellite Launch Center

Loading…

Prochains Passages (prochaines 24 heures)

TLE

FraisSource: Space-Track

Époque: Sep 14, 2026, 06:33 UTC

1 29909U 99025HF  26257.27295476  .00005446  00000-0  11381-2 0  9993
2 29909  98.6444  16.5074 0035781 246.7803 142.8891 14.59880766 24219

Suivez FENGYUN 1C DEB en temps réel avec AllMySat

Download on the App Store